loading
|

DELTA 1 DEB, 2118

Orbit data source: Space-Track

DELTA 1 DEB, 2118 is space debris in SSO originally from a launch on Thu, 03 Feb 1966 UTC launched from the Air Force Eastern Test Range (AFETR). Debris objects in space refer to the collection of defunct objects orbiting the Earth. Examples of debris include non-operational satellites, rocket bodies, and fragments generated from explosions, collisions, or faulty payload assembly.

Loading next visibility...
Next conjunction unknown
Loading greatness...
DELTA 1 DEB details
Identifier
2118, 1966-008D
Orbit
SSO
Last TLE update1 day ago
Origin
Flag of USGSFC (US)
ManufacturerUnknown
MissionSpacecraft
Bus & MotorUnknown bus, Unknown motor
Mass~1 kg wet, ~1 kg dry
Launch date (UTC)
1966-02-03 (59 years ago)
Launch vehicleUnknown
Launch site
Air Force Eastern Test Range (AFETR)
Object type
Payload
Rocket body
Debris
Shape & HBRBox + 1 Cable, 3.5 m
Radar Cross Section6.125 m², Small (<0.1 m²)

Expand to show TLE details & history

TLE from 1 day ago
0 DELTA 1 DEB
1 02118U 66008D   24285.71480806  .00004351  00000-0  11332-2 0  9992
2 02118  97.9750  79.8552 0128115 304.4087  54.5047 14.45228688 47151
Epoch: 2024-10-11T17:09Z
Definitive object data (Epoch: 2024-10-11T17:09:19.416Z)
Latitude-0.00002°
Longitude161.74327°
Altitude692.06 km
Speed7.538 km/s
True Right ascension05h 19m 25s
True Declination0° 00' 00"
Sunlit
Object was in full shadow at TLE epoch
Predictive object data (real-time)
Latitude-11.88577°
Longitude-18.92647°
Altitude775.621 km
Speed7.45 km/s
Apparent Right ascension20h 10m 08s
Apparent Declination-42° 30' 20"
Sunlit
Object is in daylight
Predictive observer data (real-time)
Local Sidereal Time13:25:28
Azimuth120.534° SE
Elevation-32.891°
Doppler factor1
Orbital elements
Apogee829.538 km
Perigee647.192 km
Semi-major axis7,116.502 km
Eccentricity0.0128115
Inclination97.975°
RAAN79.8552°
Arg. of periapsis304.4087°
True anomaly55.71109°
Mean anomaly54.5047°
Eccentric anomaly55.10678°
Mean motion3.61529 °/min
BSTAR0.0011332
Period99.58 mins
No data available
No data available

DELTA 1 DEB Visibility forecast

Observer location: 39.9160978°, -105.1181434

Span
Click to sort rows by Start time (UTC) header in descending order
Start Az.
Max El. time (UTC)
Max El. Az.
Max El.
End time (UTC)
End Az.
6 mins2024-10-12 22:00:34.731Z52.928° ENE2024-10-12 22:03:34.731Z87.788° E16.181°2024-10-12 22:06:34.731Z124.63° SE
9 mins2024-10-12 23:38:34.731Z2.237° NNE2024-10-12 23:42:34.731Z292.733° NW41.072°2024-10-12 23:47:34.731Z208.563° SW
5 mins2024-10-13 09:12:34.731Z90.862° ESE2024-10-13 09:14:34.731Z62.467° ENE17.349°2024-10-13 09:17:34.731Z24.534° NE
8 mins2024-10-13 10:49:34.731Z191.393° SSW2024-10-13 10:52:34.731Z260.534° W38.836°2024-10-13 10:57:34.731Z337.97° N